Theta_e
334 326 329 329 329 323 320 319 305 311 308 304 304 305 304 311 311 310 307 310 308 312 316 323 323 321 316 317 320 323 324 320 321 316 317 341 346 349 346 345 343 349 353 353 355 355 354 353 353 352 352 352 352 352 354 354 354 354 354 355 355 355 354 353 353 354 354 354 353 353 352 351 349 348 347 346 346 346 347 346 346 346 348 349 349 349 348 346 345 346 347 347 347 347 347 348 346
327 327 327 328 325 319 312 315 307 307 306 302 303 305 305 311 310 309 307 307 309 311 315 319 322 321 319 320 320 322 322 328 327 332 338 345 349 348 345 346 344 348 352 354 354 354 353 354 353 352 351 351 352 352 353 353 354 354 355 355 355 355 354 354 354 354 354 354 353 352 351 350 349 348 347 345 345 345 346 346 346 346 346 347 347 348 346 345 345 344 346 346 346 347 347 347 346
326 327 324 323 321 317 313 312 300 303 300 299 303 305 309 307 308 310 309 310 312 313 316 317 317 316 317 318 317 318 321 331 331 331 342 347 342 345 345 346 346 347 353 353 353 352 352 353 353 352 351 351 351 351 352 353 353 354 355 354 355 354 354 354 354 354 354 353 353 351 351 351 350 350 349 348 347 345 344 345 346 347 346 346 346 347 346 345 344 346 345 346 345 346 346 346 346
330 331 322 320 313 317 308 307 303 301 299 301 302 307 308 307 309 310 311 312 313 314 314 314 313 320 316 312 316 322 326 329 330 330 339 344 347 346 347 346 348 347 352 351 352 352 352 354 353 351 351 351 351 352 351 353 354 354 354 355 355 355 354 354 354 354 354 353 352 351 351 351 351 350 349 348 348 347 346 346 345 345 346 346 346 346 345 345 345 346 346 345 347 346 346 346 346
328 324 322 317 313 309 307 305 303 303 298 302 299 307 309 308 310 311 311 313 313 313 313 313 313 317 317 317 317 317 324 337 338 340 344 348 350 348 348 348 345 347 348 349 352 352 354 352 352 352 352 351 351 351 352 353 354 354 354 354 354 354 355 354 354 354 354 352 352 351 351 351 350 349 348 348 348 350 349 349 348 349 348 347 345 345 345 345 345 345 346 346 347 347 346 345 345
321 320 322 318 310 316 309 303 303 303 304 307 304 306 310 311 310 311 311 313 313 314 313 313 310 312 313 323 322 326 321 322 338 343 347 345 348 350 349 348 345 345 346 349 353 354 354 353 352 352 352 351 351 351 352 353 354 354 354 354 354 354 355 354 354 354 354 353 352 351 351 351 350 350 349 349 350 349 347 346 346 346 346 347 346 346 344 344 345 346 347 347 347 347 346 345 344
317 318 318 316 314 314 303 301 302 304 306 309 306 307 311 311 312 312 311 311 313 314 314 313 314 314 311 325 341 341 339 333 339 346 348 348 349 350 349 346 344 344 347 350 352 353 355 352 352 352 351 351 351 351 352 354 354 354 354 354 354 354 354 354 353 353 353 353 352 352 352 352 352 352 351 349 347 346 346 346 346 346 345 345 346 345 344 344 345 346 347 347 346 346 346 345 344
321 313 314 309 307 308 303 303 303 305 306 310 310 309 312 313 313 311 311 309 309 310 313 314 314 312 314 319 315 341 344 346 346 350 350 350 350 349 347 345 344 346 348 352 354 356 354 352 352 352 351 351 351 351 353 354 354 354 354 354 354 354 354 354 353 353 353 353 352 352 352 352 351 351 350 347 347 347 346 346 346 346 345 345 344 344 344 344 345 347 347 346 346 346 346 345 344
318 314 315 309 304 307 304 303 304 308 307 310 310 313 318 313 312 311 310 311 312 312 312 313 313 309 313 313 326 341 344 349 349 352 350 350 350 348 346 345 345 345 348 350 356 355 353 352 352 352 352 351 351 352 354 354 354 354 354 354 354 354 353 354 354 353 353 353 352 352 352 351 351 351 349 347 347 347 347 345 345 345 345 345 345 344 345 345 346 345 346 345 346 346 345 345 344
314 314 307 307 307 301 303 304 304 306 306 308 310 312 311 312 312 312 310 310 311 312 313 313 313 309 313 313 329 338 343 348 349 348 349 350 350 350 348 349 345 346 346 351 355 354 353 353 352 352 352 352 352 353 354 354 354 354 353 354 354 354 353 353 353 353 352 352 352 352 351 351 351 351 350 349 349 348 347 346 345 345 345 345 344 344 344 345 345 345 345 346 346 345 343 344 345
309 314 313 305 303 301 300 302 305 307 308 311 311 313 312 313 313 312 311 311 313 311 313 313 311 312 312 314 338 349 348 347 347 346 349 350 351 350 349 349 346 346 348 351 351 353 352 353 353 352 352 352 354 354 354 354 354 353 354 354 354 353 353 353 351 351 353 352 352 352 351 351 350 349 348 348 347 347 347 345 344 344 344 344 344 344 344 345 345 345 345 346 347 346 346 345 347
307 308 309 301 301 302 303 303 304 307 309 309 309 313 314 312 313 310 311 309 311 312 311 314 311 314 311 313 339 347 348 347 350 349 350 352 350 350 350 347 347 348 352 353 350 352 350 351 352 353 352 352 354 354 354 354 354 353 354 354 353 353 352 350 352 351 351 352 351 350 350 349 348 347 347 347 346 346 345 344 343 343 343 344 344 344 344 345 345 346 346 346 346 346 346 344 346
307 309 306 303 302 303 304 304 305 307 307 308 310 312 315 312 311 311 311 311 312 310 311 314 316 314 311 314 342 346 344 350 350 351 351 350 350 350 349 346 349 351 352 351 349 348 350 348 349 350 351 353 353 354 354 354 354 353 353 353 353 352 351 352 351 351 351 351 350 349 349 349 348 348 347 346 345 345 344 344 343 343 343 343 344 344 344 344 345 346 346 345 346 346 346 346 345
308 309 308 302 307 304 303 304 305 304 306 310 312 314 314 311 312 313 313 310 311 310 314 318 316 318 313 316 338 341 345 348 349 349 348 351 350 348 348 348 352 351 351 348 345 346 347 346 349 348 350 351 353 354 354 354 354 354 353 353 352 351 351 350 351 349 350 349 349 348 348 347 346 345 345 344 344 344 343 343 343 343 343 342 343 344 344 344 345 346 346 346 346 346 346 346 348
309 312 307 305 303 305 305 302 304 304 305 310 312 313 313 313 313 313 311 309 311 316 321 321 317 314 314 315 329 330 343 346 348 351 350 348 347 348 348 349 350 350 347 348 347 345 344 345 346 349 350 347 351 351 354 356 354 353 353 352 352 351 351 350 350 350 350 349 348 347 345 345 344 344 343 342 342 342 342 342 342 342 342 342 343 344 344 344 345 346 347 346 346 345 345 345 344
312 310 307 302 301 302 304 304 306 305 306 311 313 314 312 312 314 312 312 313 313 319 321 315 324 316 316 315 324 343 345 347 348 349 348 346 347 347 346 345 346 345 346 347 346 345 344 343 345 349 348 348 350 350 350 354 354 353 352 352 351 351 351 350 350 350 349 347 346 345 344 344 343 343 342 342 341 341 342 343 342 343 343 343 343 343 345 345 345 346 345 346 345 343 344 343 344
313 310 302 302 299 301 303 304 305 302 308 311 313 313 311 309 313 314 316 316 311 312 318 319 317 324 319 326 338 346 345 348 347 347 346 344 344 343 344 344 344 344 346 346 346 345 344 343 346 348 346 347 350 349 349 352 354 353 353 352 351 351 350 350 350 348 347 345 344 343 342 346 345 341 342 342 341 342 342 342 342 343 343 343 344 344 344 343 343 343 344 344 346 344 343 343 343
310 304 301 299 302 301 306 306 307 310 309 310 312 313 312 308 311 312 315 314 315 314 314 321 322 319 323 333 335 346 346 346 347 344 343 342 344 342 341 341 341 342 342 343 344 345 344 344 346 348 347 348 347 347 349 351 353 352 354 354 354 353 351 351 351 347 346 346 344 346 349 344 345 344 344 338 343 344 343 342 342 343 343 344 344 344 344 345 343 343 344 344 342 344 344 341 340
306 304 302 299 303 305 310 309 310 309 309 311 312 313 312 310 310 313 310 311 313 312 313 317 319 320 331 333 344 344 344 346 346 345 343 341 341 341 340 340 341 340 339 342 344 345 346 344 346 346 347 348 347 347 347 349 352 351 352 352 353 352 353 352 349 347 348 344 342 343 343 344 344 341 343 342 343 342 345 342 342 343 343 342 344 345 345 345 345 344 343 343 343 344 340 337 338
307 304 300 301 307 308 310 310 310 311 311 311 311 312 312 312 312 315 310 310 313 312 313 315 316 318 327 335 341 343 344 343 346 346 344 343 342 341 340 340 340 341 342 341 342 345 345 344 346 348 348 348 345 347 348 348 350 351 350 352 351 351 352 351 349 347 346 345 343 345 345 345 344 344 342 345 345 344 343 343 343 343 343 345 344 345 343 342 342 343 342 345 346 341 337 335 336
307 304 301 304 308 306 308 310 311 311 312 311 311 312 312 312 313 312 311 310 311 313 317 316 317 320 324 334 341 342 343 344 345 346 345 343 343 344 343 343 342 342 343 343 343 344 345 346 346 346 349 349 346 346 347 345 349 349 349 350 352 351 349 349 348 348 347 346 344 344 343 345 344 337 340 341 339 336 335 339 340 341 340 338 344 340 334 333 338 336 339 343 340 339 339 339 335
307 304 306 307 308 306 309 310 311 311 312 311 311 310 310 315 313 312 311 307 309 313 315 316 316 319 325 333 339 343 344 345 345 344 344 344 343 342 344 343 345 344 344 341 342 344 345 346 347 347 347 346 343 344 346 346 348 346 349 352 349 348 351 349 347 348 347 346 342 343 344 345 346 344 345 345 343 336 332 331 333 337 336 336 337 342 340 338 340 342 339 338 341 340 337 336 338
301 305 306 307 308 306 310 310 310 310 310 309 309 311 313 312 310 313 311 310 312 317 317 316 318 319 327 333 340 343 345 345 344 343 343 343 344 344 342 343 343 341 342 342 343 344 345 347 347 346 345 345 345 346 345 345 345 346 349 352 351 350 352 347 346 346 347 344 346 346 343 345 344 342 341 342 341 341 338 336 338 339 341 336 336 341 341 341 340 338 336 338 337 337 337 341 341
304 301 305 306 308 306 309 309 310 311 310 309 311 313 310 310 307 312 310 313 314 316 317 317 323 328 331 331 341 344 346 346 345 344 344 345 345 345 344 343 343 344 342 343 344 344 344 344 346 346 344 343 344 346 345 346 345 346 351 351 352 350 349 346 345 346 348 344 347 347 347 345 345 345 346 342 341 343 341 343 342 338 341 338 338 342 335 338 338 339 343 341 340 344 343 346 344
302 301 305 306 307 307 308 309 309 310 310 311 312 310 309 310 310 311 310 313 314 314 316 318 322 331 329 332 342 346 346 346 344 344 346 344 347 346 346 344 344 344 341 343 343 343 343 344 345 344 342 342 344 344 345 344 345 347 349 350 351 350 349 346 346 348 348 345 348 348 349 347 345 345 347 346 346 343 342 343 340 342 343 343 342 344 346 346 345 346 348 347 347 346 344 346 343
304 303 305 305 306 307 308 308 309 309 309 310 309 308 310 311 312 309 311 312 314 315 315 318 331 335 335 337 344 346 346 346 344 343 343 345 346 345 344 345 344 343 342 343 343 342 343 345 344 344 343 343 344 346 345 345 344 345 347 349 353 349 346 347 348 345 346 345 346 347 348 348 346 345 346 348 346 347 346 349 349 347 347 347 349 347 349 348 348 348 348 347 344 344 343 344 339
306 304 304 305 306 306 308 307 308 309 309 310 307 307 308 311 309 304 312 313 315 314 317 322 333 334 335 339 344 346 346 345 344 343 343 345 345 344 344 345 343 342 344 343 342 342 343 343 343 342 341 345 344 344 345 346 347 347 348 349 352 347 346 348 347 346 345 345 346 349 348 349 349 347 348 348 349 347 348 350 350 350 348 346 348 349 350 350 349 348 347 346 346 344 340 341 340
305 305 304 304 305 306 307 307 307 308 307 309 308 306 308 309 309 306 310 314 314 313 317 321 325 322 333 338 344 346 347 347 344 342 341 342 341 342 343 342 342 343 342 342 341 343 342 342 343 343 342 344 346 346 346 346 346 346 348 349 348 347 349 346 344 346 346 347 349 349 349 348 348 348 351 350 350 348 348 348 349 349 347 349 351 347 353 349 349 347 347 346 344 344 345 343 343
304 305 300 302 304 302 305 305 306 307 305 308 308 305 303 305 304 309 312 315 315 316 317 323 325 324 327 336 342 343 343 345 343 340 342 343 344 344 343 344 343 343 342 343 342 342 342 341 344 344 343 346 347 345 345 347 347 346 347 347 349 348 348 346 344 347 348 350 353 354 351 348 348 348 352 351 349 349 348 350 348 349 350 350 348 350 349 347 348 346 347 345 346 346 344 343 337
305 304 301 300 300 299 303 306 306 305 306 308 307 295 299 303 306 309 311 313 314 315 316 320 323 321 322 332 338 340 342 343 342 341 341 342 344 344 343 345 345 344 342 341 343 341 342 340 343 344 343 344 347 345 346 345 347 346 349 347 349 349 346 344 345 350 351 350 352 352 353 347 346 349 350 351 353 348 349 348 347 349 347 346 354 352 349 347 345 346 345 346 341 341 339 339 336
298 301 302 297 296 296 303 304 305 303 306 306 306 296 298 303 306 309 311 313 313 311 317 318 323 322 321 329 336 337 342 343 342 343 344 343 344 344 345 344 344 346 342 342 342 343 342 341 343 342 344 346 347 346 346 347 348 346 347 346 348 349 347 346 349 350 349 348 349 350 351 350 347 349 350 351 351 351 347 348 341 345 345 342 347 349 348 347 347 345 343 343 341 338 336 337 336
300 296 293 297 295 297 302 305 304 300 304 307 304 297 298 303 306 309 312 313 313 313 317 316 320 321 321 324 334 336 340 343 344 344 344 344 343 343 344 344 345 346 345 344 342 343 341 341 342 343 343 345 347 346 347 347 348 347 347 346 348 348 346 349 348 349 348 347 348 348 350 351 349 349 348 349 353 346 343 340 345 343 339 343 343 346 347 344 345 346 344 343 338 335 335 337 337
298 295 294 294 295 296 299 303 305 305 304 305 303 297 301 302 306 309 313 313 312 313 316 315 318 323 323 323 330 335 339 341 341 341 342 343 344 344 344 344 345 346 346 345 343 342 341 341 341 342 343 344 346 347 347 348 348 348 347 347 348 349 348 348 348 349 348 347 347 345 348 351 351 350 350 347 347 345 342 340 343 341 342 343 347 345 350 345 346 345 344 344 343 338 333 333 336
294 297 293 296 295 296 294 302 304 304 303 300 303 300 301 304 306 308 313 313 312 313 315 315 315 317 322 323 327 334 337 339 339 339 341 343 343 344 345 344 345 345 346 345 342 342 340 341 341 342 342 345 345 345 347 347 348 348 347 347 347 347 349 349 349 348 347 348 347 346 346 349 350 348 347 343 344 342 343 342 342 340 342 343 343 344 347 347 346 345 342 343 341 340 335 336 335
293 294 293 294 297 297 296 296 302 303 303 301 301 300 301 303 306 307 308 313 311 313 315 315 314 316 320 322 323 332 334 338 338 340 343 343 343 344 343 344 345 345 344 343 343 343 342 342 340 342 340 345 344 346 347 347 348 347 347 347 347 348 348 347 347 346 349 348 348 346 346 348 347 346 343 344 343 344 341 342 340 340 346 342 343 343 344 343 343 342 340 338 340 338 336 337 336
295 297 296 295 294 295 296 299 304 303 300 299 300 298 300 302 304 306 309 310 310 315 317 314 314 316 321 323 324 329 332 332 340 342 343 342 343 343 343 344 344 344 344 344 343 343 342 342 341 341 341 344 344 345 346 343 344 343 342 345 345 345 346 346 348 348 348 346 347 348 347 348 346 346 343 342 342 343 342 342 342 342 346 343 342 341 339 338 339 340 339 336 336 335 337 336 336
298 298 298 296 296 297 300 301 303 305 301 299 300 301 301 302 304 305 309 314 315 316 315 312 314 316 319 322 324 329 330 333 340 343 342 343 342 342 343 343 342 342 343 342 342 342 343 340 341 340 341 344 343 342 342 341 340 342 345 344 341 343 343 347 345 347 347 347 348 348 348 348 349 347 346 345 347 344 343 344 341 342 343 342 341 340 340 340 340 339 338 337 334 334 334 334 336
297 297 297 296 297 295 300 300 303 305 300 299 301 301 301 303 304 305 310 314 313 315 313 311 313 316 318 322 325 328 332 336 339 340 340 341 340 341 342 341 341 339 340 342 341 342 342 342 342 341 343 343 344 344 342 342 343 341 340 340 342 341 340 342 342 344 346 346 346 345 346 345 348 348 347 348 349 347 342 344 342 347 341 341 340 339 338 337 338 337 337 337 334 330 330 331 335
297 296 296 296 297 299 301 302 303 304 301 299 301 299 300 303 304 305 307 311 315 315 314 312 313 315 317 321 326 329 333 331 336 338 339 338 339 340 340 341 340 341 341 341 343 342 342 342 342 342 343 342 342 343 344 342 344 344 344 341 341 339 345 345 343 346 346 346 344 343 344 346 344 345 346 346 346 346 345 343 341 343 340 340 339 336 336 335 336 335 334 334 332 332 328 329 331
295 296 295 294 298 296 293 300 302 303 301 299 301 299 300 303 305 305 307 309 313 316 315 314 314 315 317 321 325 329 332 332 334 336 337 338 339 338 339 339 340 340 340 341 342 342 342 342 343 342 342 343 342 344 344 345 344 344 345 343 346 346 344 346 346 345 342 340 340 342 343 344 342 342 342 343 345 344 342 341 340 339 337 338 336 334 333 333 333 333 333 332 334 328 326 325 328
295 297 295 295 297 298 297 298 301 302 302 302 301 299 298 301 301 302 306 310 315 316 316 314 314 317 321 324 326 330 332 332 332 335 337 336 337 337 337 338 341 339 339 340 341 341 340 343 344 343 343 343 344 344 344 343 343 341 345 345 344 341 341 342 340 338 339 339 339 339 340 341 341 341 341 341 341 340 340 339 338 337 336 336 335 332 332 330 330 331 333 332 332 330 323 323 322
293 296 297 297 299 300 299 301 299 296 296 299 299 292 293 300 301 301 304 306 310 315 315 313 313 316 319 319 322 331 335 333 335 335 336 336 336 337 338 338 338 339 340 341 342 342 342 341 341 343 343 344 344 344 344 342 341 340 339 337 335 335 335 335 336 335 336 336 337 339 339 340 340 338 338 339 339 338 338 338 337 336 334 332 332 331 331 329 328 329 331 331 329 331 328 322 318
292 293 299 299 300 300 299 298 297 292 291 297 300 292 290 299 299 301 303 304 306 313 314 313 313 315 317 320 325 329 330 330 335 337 336 336 336 336 337 337 338 338 340 343 343 343 342 342 342 342 342 342 344 343 342 342 340 341 339 338 338 338 336 338 340 340 338 336 335 336 336 338 337 336 336 336 336 337 337 335 334 333 333 331 330 330 327 327 326 327 328 328 327 328 328 323 323
291 298 299 299 299 298 298 298 297 295 299 300 299 297 293 293 298 302 304 303 304 310 313 314 314 316 317 322 325 330 331 330 330 335 336 336 337 336 335 337 337 338 341 341 342 343 342 340 342 343 342 341 337 342 341 341 341 341 341 340 337 336 339 337 339 338 338 334 334 334 336 334 334 333 333 333 334 333 333 332 332 331 330 329 328 327 327 326 325 325 325 325 324 323 323 320 318
294 299 300 298 298 298 299 298 297 297 296 292 296 298 293 294 300 303 303 300 302 307 311 313 314 316 320 323 326 331 332 333 332 335 335 336 336 336 336 336 338 339 341 340 338 337 337 339 342 342 341 337 336 339 341 341 341 340 339 339 334 334 337 336 335 334 333 335 333 332 333 332 332 331 330 330 330 329 329 329 330 329 328 326 325 324 323 324 324 322 321 320 320 319 319 320 320
297 300 301 300 299 299 300 298 296 296 294 290 294 297 291 292 300 300 302 301 300 305 311 313 314 316 319 323 326 324 327 330 333 336 336 337 337 337 338 338 338 340 340 338 331 332 336 337 339 338 338 335 339 341 341 340 340 340 339 338 336 334 335 334 333 332 332 332 330 329 329 329 328 328 328 328 327 327 327 328 327 326 324 323 322 320 321 320 320 320 319 318 318 317 318 318 317
300 299 298 297 297 296 299 298 297 295 288 291 296 297 294 289 296 299 298 299 302 306 311 313 314 315 317 320 321 323 327 329 332 334 336 338 339 338 337 337 337 339 340 336 332 333 336 337 338 338 339 337 340 340 340 339 338 340 339 339 336 335 334 332 331 330 329 330 328 326 326 327 329 327 327 327 327 327 327 326 325 324 324 323 321 320 320 318 317 316 317 318 318 317 316 316 316
298 295 294 294 293 296 295 295 297 288 287 293 297 297 296 288 294 300 304 305 305 308 309 311 312 314 317 319 320 322 327 330 332 333 336 337 336 336 337 336 336 336 336 335 334 334 335 337 337 339 339 339 340 341 341 340 340 340 341 339 337 334 334 332 331 328 328 329 328 325 326 327 327 327 326 325 325 326 325 324 325 323 322 321 320 319 319 317 316 316 316 316 317 317 317 316 315
296 295 293 289 286 287 284 289 285 286 286 294 297 298 294 292 298 301 305 306 308 310 311 313 313 314 317 319 321 320 324 330 332 332 335 335 335 333 332 334 336 334 334 334 335 336 336 337 337 337 337 339 339 341 340 340 339 339 340 339 338 336 335 334 332 330 330 329 328 325 324 324 325 324 325 324 324 325 324 324 324 322 321 321 320 318 317 317 316 316 316 316 316 316 316 316 315
293 291 290 287 284 282 280 285 288 289 293 297 296 299 293 297 299 304 305 308 310 312 314 315 314 315 317 318 320 319 324 330 331 332 333 335 335 334 334 333 334 334 334 334 334 335 337 337 336 337 337 339 339 340 340 338 339 339 339 338 336 335 334 334 332 331 332 331 329 325 325 325 324 324 325 325 325 325 325 325 324 323 321 320 319 317 316 315 315 313 314 313 313 315 316 316 315
293 296 293 290 289 285 280 285 281 285 289 294 299 294 291 293 296 304 306 311 313 314 314 314 315 317 318 319 315 319 326 331 332 332 332 334 335 335 334 334 334 334 334 334 333 334 336 337 337 336 336 338 338 340 339 339 338 338 338 338 337 336 335 333 332 333 330 326 326 326 326 326 325 325 325 327 325 326 324 324 322 320 319 318 316 315 314 315 315 314 313 314 314 315 315 315 314
295 296 297 293 291 295 287 289 290 290 290 290 293 292 297 298 306 307 307 312 314 314 313 314 314 316 316 315 318 321 326 329 332 332 332 333 336 336 335 335 334 334 334 334 333 335 336 337 337 336 336 337 338 339 339 339 338 339 339 338 335 335 334 333 331 330 331 328 327 327 327 326 325 325 327 326 326 324 322 321 320 318 316 315 314 313 314 314 314 313 312 312 311 312 312 312 312
292 294 290 293 300 297 291 291 297 294 291 288 295 295 298 303 305 307 306 309 313 312 311 311 314 314 315 315 320 323 327 330 331 331 332 334 335 336 335 335 335 335 334 334 334 335 336 336 336 336 336 337 337 338 338 339 339 338 338 337 335 334 333 331 328 328 329 328 327 326 324 323 324 324 324 325 323 322 320 319 317 316 316 315 314 314 313 313 314 313 313 312 312 313 313 312 312
295 289 293 299 302 301 295 287 289 289 285 287 294 291 294 294 292 305 304 306 310 311 310 312 315 315 313 316 318 321 325 330 333 333 333 335 336 335 335 335 335 335 335 334 334 335 337 336 337 336 335 336 337 338 338 338 337 336 336 335 334 333 332 331 329 329 328 325 325 323 322 321 322 322 323 322 321 319 318 318 316 316 316 315 314 313 313 313 313 312 313 312 312 313 312 312 313
295 294 302 293 288 288 294 291 284 284 283 287 292 294 295 296 297 302 302 304 307 309 310 311 312 313 315 315 319 324 327 328 331 332 333 333 334 335 334 335 335 336 335 335 334 334 335 336 336 335 335 337 337 337 338 337 337 336 335 335 334 332 332 330 329 328 327 324 323 322 321 322 323 323 321 321 320 318 318 318 317 316 315 314 313 313 313 313 313 311 311 311 312 312 311 310 311
300 300 297 300 297 293 291 291 294 292 285 286 289 292 289 299 301 303 303 305 308 309 309 309 311 314 312 315 322 322 322 325 326 332 332 333 334 335 335 335 334 334 334 334 334 333 334 336 334 335 337 336 335 337 337 336 336 335 334 333 333 331 330 328 328 327 325 323 322 321 320 321 321 322 322 321 320 319 318 317 315 314 313 312 311 312 313 312 312 312 311 311 312 311 310 309 309
292 293 293 294 296 299 298 298 294 290 288 287 287 286 292 300 305 305 305 307 309 309 308 309 311 313 314 321 323 321 322 326 331 332 332 333 334 335 334 336 335 335 335 334 334 334 333 334 334 335 334 335 335 336 335 335 335 334 333 331 330 329 328 327 327 326 324 322 321 320 320 321 322 323 323 320 320 318 316 315 313 312 311 311 311 311 312 312 311 311 311 310 310 309 309 309 308
294 293 292 294 292 291 288 287 298 296 292 288 287 287 296 303 306 307 307 308 309 311 310 310 311 312 316 319 322 325 325 324 327 332 333 333 333 334 335 335 335 334 333 333 334 332 331 332 333 333 333 334 335 334 335 333 333 333 331 330 329 330 329 327 326 323 320 318 318 320 322 323 324 323 323 320 318 317 316 314 312 311 311 311 311 311 311 312 310 310 310 310 310 309 308 308 309
Wind_Speed
15 11 6 7 4 2 6 3 10 6 7 9 9 4 3 4 4 12 4 6 1 6 5 4 2 3 6 10 3 4 5 6 7 6 2 3 4 9 9 7 16 16 17 16 16 15 16 16 16 15 14 14 13 13 13 13 12 12 12 12 12 12 11 10 10 10 11 11 11 12 12 13 12 12 12 11 10 10 10 10 10 11 12 12 12 11 12 10 10 9 10 11 11 11 12 11 11
13 13 12 4 4 1 1 4 7 8 6 9 8 6 8 4 7 3 4 4 5 6 5 3 4 2 4 3 5 3 8 8 9 5 3 6 8 9 10 11 15 16 15 15 15 14 14 15 15 15 15 15 13 13 13 13 12 12 12 13 12 12 11 10 10 11 11 11 12 11 12 12 12 12 12 11 10 9 8 9 10 10 10 11 11 11 11 10 10 11 10 11 11 11 10 11 11
12 11 10 8 7 7 6 5 9 8 8 8 7 9 8 7 12 7 5 4 4 5 4 2 1 2 4 8 6 4 6 8 8 6 4 8 10 7 11 13 14 15 16 14 14 14 13 15 15 15 15 15 14 14 13 13 13 12 12 13 13 12 10 10 10 10 11 11 12 11 11 11 12 11 11 11 10 10 9 9 10 10 9 10 10 11 10 9 11 11 10 11 10 10 9 9 9
12 10 8 6 8 4 7 5 7 9 9 9 6 12 5 12 6 3 2 4 4 5 4 3 8 8 7 3 8 4 9 9 4 7 6 8 3 12 12 14 14 13 13 12 13 13 13 16 15 16 16 15 14 14 14 13 13 13 12 13 13 11 10 10 10 10 11 12 12 11 11 11 11 11 11 11 10 9 9 9 9 10 10 10 10 10 10 10 11 10 10 10 10 9 8 8 8
10 9 7 8 7 7 6 8 8 8 13 7 9 15 8 4 9 2 1 5 3 5 3 5 8 7 4 5 4 2 5 7 7 3 6 7 11 12 13 13 12 12 12 14 13 13 16 20 15 14 14 15 15 14 14 14 13 13 12 13 13 12 10 11 10 11 11 12 12 11 11 10 10 12 12 11 11 11 11 11 11 11 11 10 10 9 8 8 10 10 10 10 9 8 7 6 6
9 8 7 6 7 6 5 8 11 12 11 11 8 11 11 8 13 4 3 6 1 2 5 7 5 7 6 7 6 4 4 5 2 7 4 6 11 14 14 12 12 12 12 12 13 12 15 20 16 15 14 15 14 14 14 13 13 12 12 12 13 12 12 11 10 11 11 12 11 11 10 9 10 10 11 12 11 10 10 9 9 10 11 11 11 10 9 9 9 10 10 10 8 7 6 5 3
7 7 7 8 9 7 9 11 12 11 11 12 10 15 19 19 14 5 10 9 7 6 1 5 6 6 12 7 10 9 6 5 0 6 3 11 12 14 14 12 12 12 13 11 11 13 18 18 16 14 14 14 14 14 14 13 13 12 12 12 12 12 12 10 10 10 11 10 10 10 9 9 10 10 11 11 10 9 9 9 10 10 10 10 10 9 9 9 10 10 9 9 7 5 5 3 2
6 8 5 10 9 9 12 13 13 12 12 17 16 18 16 5 3 8 11 5 2 5 6 2 5 5 2 1 1 7 9 8 7 8 12 11 12 13 13 11 12 13 12 11 10 15 19 16 16 14 14 13 13 13 13 13 12 12 12 12 12 12 12 11 11 11 10 10 9 9 10 10 11 11 10 10 10 10 9 9 9 10 10 10 10 8 8 9 9 9 9 8 6 4 3 2 2
8 8 7 10 10 9 12 14 14 15 16 13 18 20 7 4 2 7 10 5 8 8 9 1 6 9 6 2 7 9 7 9 10 10 10 12 13 13 9 11 12 12 13 11 14 16 16 16 14 14 13 13 13 13 12 13 12 11 12 11 11 10 11 11 12 11 11 10 10 9 9 10 10 11 11 10 10 10 9 9 9 10 10 10 10 9 8 9 8 8 7 6 5 4 3 2 2
9 8 9 9 10 15 15 14 14 13 16 19 13 11 9 11 15 10 10 6 10 6 5 2 5 10 6 7 11 7 6 7 9 11 10 12 11 10 10 10 12 13 12 12 13 13 12 17 14 13 12 12 12 12 11 10 11 10 10 10 11 11 10 10 11 11 10 11 9 9 9 9 10 10 10 10 10 10 9 8 8 9 10 10 10 10 10 10 9 8 7 7 6 4 3 2 1
10 9 9 12 13 15 16 14 15 13 17 14 15 14 11 14 15 10 9 11 7 7 6 5 13 8 1 3 10 6 8 8 9 11 11 11 10 9 9 10 11 11 11 14 13 14 14 14 17 13 11 11 11 11 10 10 10 10 10 9 10 10 11 10 11 11 11 11 10 9 9 9 10 10 10 9 9 9 9 8 8 8 9 10 10 11 11 11 10 9 8 6 5 4 3 2 0
11 12 10 14 16 14 14 15 17 15 16 17 18 16 10 13 13 13 12 12 14 9 9 11 3 5 6 7 6 7 8 7 10 10 12 11 9 10 9 8 11 10 12 13 14 14 13 14 13 14 12 10 11 12 11 11 11 10 10 10 10 10 10 10 11 10 10 11 10 9 9 8 9 9 9 9 8 8 8 7 6 7 8 9 9 10 10 11 10 8 6 6 5 4 4 2 2
13 12 15 14 14 16 17 17 16 19 16 15 16 13 11 14 16 14 12 11 11 5 13 4 6 5 8 3 7 8 8 8 9 11 12 9 10 9 9 10 10 11 12 12 14 13 15 13 13 13 13 12 11 11 11 12 11 11 10 11 11 10 10 11 11 10 12 11 10 9 9 9 9 9 8 8 7 7 7 7 6 6 7 8 9 9 9 9 9 8 7 6 5 4 4 4 4
13 12 13 16 15 16 17 17 17 17 15 15 14 13 15 10 13 14 10 12 8 10 2 8 4 6 10 5 6 6 8 10 11 11 9 9 10 10 10 10 10 11 11 11 13 13 12 13 12 12 13 12 12 11 10 10 12 11 11 11 11 11 11 11 11 11 11 11 11 9 8 8 7 7 7 6 6 6 6 6 6 5 6 7 8 9 9 9 8 7 7 6 6 5 4 3 4
15 11 13 15 16 17 18 17 17 18 16 16 14 14 12 11 12 11 11 11 10 9 10 4 6 7 6 7 5 2 11 12 12 11 10 10 10 10 11 10 9 10 10 10 13 13 13 12 12 12 11 11 12 10 10 12 13 12 12 12 12 12 12 12 11 12 12 11 10 9 7 6 6 5 5 5 5 5 6 6 5 5 5 6 6 7 7 8 8 7 7 6 6 5 4 4 4
12 13 13 16 19 19 16 17 19 20 15 17 14 15 13 12 15 14 9 11 10 2 2 4 8 8 7 7 8 11 15 14 13 12 10 12 11 10 11 11 9 10 8 9 11 11 13 13 12 11 11 12 10 10 10 11 13 13 13 13 12 12 13 13 13 12 11 11 9 9 9 8 7 5 6 5 5 6 7 6 7 5 4 5 5 6 6 6 5 6 5 5 5 6 5 6 6
12 14 17 16 20 21 19 17 16 17 16 18 14 17 16 11 11 11 9 5 10 11 8 7 5 4 7 7 7 14 14 14 13 13 12 11 10 9 9 8 9 8 7 9 9 10 12 11 12 10 11 12 10 11 9 10 12 15 13 14 14 14 13 14 13 13 11 10 9 9 10 8 6 5 7 6 7 6 8 7 7 5 4 4 5 5 4 4 5 4 4 6 6 7 8 9 9
13 15 16 21 19 24 20 19 18 15 17 17 19 16 10 10 9 11 10 12 12 13 9 5 6 5 2 6 8 13 15 15 14 14 12 11 9 9 9 9 9 9 8 8 9 9 9 10 12 11 9 13 11 9 8 9 10 13 12 12 12 13 13 14 12 9 9 7 8 8 7 3 3 4 4 6 6 6 6 6 6 5 5 5 4 5 5 5 5 6 6 7 10 9 12 8 9
16 14 17 22 21 20 19 17 22 18 20 16 17 21 15 13 13 12 13 12 14 14 12 10 9 8 7 8 14 13 14 14 14 13 14 14 10 11 10 9 9 10 9 8 7 8 7 9 10 11 11 12 12 10 8 10 12 11 12 11 10 13 12 12 9 10 7 7 8 5 4 3 4 5 4 5 5 6 7 8 7 7 6 7 7 7 7 7 8 8 9 10 11 14 9 8 8
18 16 20 23 22 22 21 22 23 21 20 20 20 20 15 14 15 13 15 13 14 15 10 13 11 10 11 12 13 13 13 13 14 13 14 13 11 11 11 11 11 10 9 7 9 6 9 9 9 9 10 12 11 9 9 10 10 10 10 10 10 9 10 9 9 8 8 6 5 3 3 3 4 3 5 7 8 6 7 8 9 9 9 9 10 8 9 9 10 11 11 13 10 8 8 10 8
15 19 19 22 23 22 24 25 23 22 21 20 22 19 19 16 15 12 14 14 15 13 13 13 12 12 12 13 13 13 13 13 14 13 13 12 12 11 9 10 9 9 8 8 8 7 8 9 9 10 11 10 10 9 9 10 9 10 10 9 9 8 9 8 7 6 6 6 5 5 5 4 6 6 6 7 7 7 7 7 7 8 7 8 11 8 7 7 9 8 8 10 8 9 11 4 3
13 21 24 26 22 24 25 25 25 22 20 22 21 22 21 15 16 15 16 15 10 13 13 14 16 10 12 14 13 13 13 13 14 14 13 13 12 11 9 9 8 9 9 9 10 8 7 9 9 9 11 10 10 9 9 9 10 9 9 8 9 9 8 7 6 6 6 6 6 5 5 5 4 5 6 6 6 7 8 8 8 8 8 8 9 8 7 7 8 7 9 10 8 5 1 3 3
17 19 23 25 26 26 20 22 23 25 22 22 23 21 17 17 17 16 13 18 12 11 13 11 5 8 12 11 14 13 13 14 14 14 14 13 13 12 9 9 10 9 9 9 11 10 8 10 10 10 10 10 11 10 9 9 9 8 9 8 8 8 7 8 6 6 6 7 5 4 5 5 5 5 6 6 6 6 7 7 7 6 7 7 7 8 4 5 6 4 1 3 1 3 3 2 3
19 18 20 24 24 28 26 24 22 21 25 26 24 18 20 21 23 13 16 15 15 12 15 4 0 7 5 7 12 12 13 13 14 13 13 13 12 13 12 10 10 9 9 10 10 11 10 11 11 11 10 10 10 9 9 9 8 8 8 8 7 7 8 7 6 6 6 6 5 5 5 5 5 4 5 5 5 5 5 6 5 6 6 6 6 4 5 5 4 2 0 1 3 2 3 2 3
22 21 23 20 21 23 25 25 26 21 20 23 25 22 22 22 19 14 19 14 13 15 17 10 6 7 9 9 11 11 12 12 13 13 12 12 12 9 10 9 10 9 9 12 11 10 11 10 11 11 10 11 10 10 8 8 8 8 8 8 7 8 7 6 6 6 6 6 6 6 6 5 5 5 5 5 5 4 4 4 5 5 5 4 4 3 2 2 2 2 1 2 2 2 2 1 1
21 24 21 20 21 20 19 21 25 23 16 16 19 23 23 20 22 24 20 17 15 15 15 12 8 9 8 9 11 11 12 13 13 14 14 13 12 11 11 10 10 10 10 10 11 11 11 10 11 12 12 11 10 9 8 9 8 8 8 8 7 8 7 6 7 6 6 6 6 6 5 4 4 4 4 4 5 5 4 4 3 4 3 3 3 3 3 3 2 2 2 2 1 2 2 2 2
15 22 24 22 22 20 16 23 24 21 21 17 20 23 24 21 18 16 19 21 15 16 11 11 11 8 10 9 11 11 12 14 14 13 13 13 13 13 12 10 11 10 10 10 10 11 11 10 12 12 11 11 9 9 9 8 9 8 8 8 7 7 6 6 6 6 6 6 5 5 5 5 4 4 4 4 4 5 5 5 5 5 4 4 4 4 3 2 1 1 1 1 1 1 1 0 2
19 15 19 23 18 22 18 15 16 18 18 20 19 22 22 24 21 21 17 18 17 18 14 13 10 11 10 11 11 10 11 12 12 13 16 15 13 13 14 11 11 10 11 10 9 10 12 12 12 12 13 11 10 10 9 9 9 9 8 7 7 7 7 6 6 6 5 4 4 5 5 5 5 4 4 4 4 5 6 5 5 4 5 1 2 4 3 1 3 2 2 2 1 2 1 2 2
17 15 10 15 20 22 22 19 18 20 17 18 18 19 22 22 26 26 21 15 15 20 14 14 11 11 11 10 10 10 10 12 13 13 15 14 12 13 14 12 11 12 10 12 11 12 13 12 12 12 12 11 11 11 9 8 7 8 8 7 7 7 7 6 6 6 6 5 4 4 4 5 5 4 3 5 4 4 5 3 5 3 1 3 0 4 3 3 2 3 3 1 2 1 1 2 3
14 18 14 15 16 20 25 18 19 23 18 17 16 18 20 26 29 24 22 17 19 15 15 15 14 14 12 11 10 10 11 12 14 13 14 14 12 13 14 13 13 12 11 10 11 12 10 9 8 10 10 11 11 10 8 8 7 7 7 7 7 7 6 6 6 6 5 4 4 5 4 5 4 4 4 4 6 5 1 5 3 6 7 4 2 1 3 3 2 2 1 2 2 1 1 1 2
16 14 15 13 14 17 23 19 20 23 18 19 18 19 19 23 25 24 22 17 21 18 19 17 14 15 14 12 11 11 12 13 13 15 15 15 13 13 15 14 15 13 11 11 12 13 12 11 10 9 10 11 11 10 9 8 7 7 7 7 7 7 7 6 6 6 5 5 5 4 4 4 4 5 4 2 4 2 4 4 4 3 2 5 4 1 5 3 2 1 2 2 2 1 1 2 2
13 13 17 14 17 14 20 22 23 22 18 23 20 18 21 22 22 23 22 17 18 19 20 19 17 16 15 14 14 12 12 13 14 15 15 16 14 12 14 15 14 14 14 13 12 13 12 12 12 11 12 12 10 9 9 8 7 7 6 7 7 7 6 6 6 5 5 4 3 4 3 3 4 4 4 2 2 5 7 7 4 3 3 6 3 4 5 3 3 2 3 3 2 3 2 2 3
14 16 15 18 18 17 15 24 24 28 19 22 26 19 20 19 21 19 20 19 19 20 20 20 18 17 16 14 13 12 13 14 15 16 16 15 13 13 12 13 12 13 13 14 15 13 13 14 12 12 13 13 11 10 9 8 7 7 7 7 7 7 6 5 5 4 3 5 3 3 3 2 2 3 3 3 7 4 4 1 2 3 2 6 2 5 1 3 2 3 3 3 3 2 3 3 2
15 16 17 17 21 18 17 16 24 25 24 20 28 23 19 13 18 21 18 23 22 21 21 20 18 16 17 14 14 14 14 15 16 16 16 15 12 13 12 13 12 11 13 13 14 13 13 12 12 12 12 11 10 10 9 8 8 8 7 7 7 6 6 5 5 5 4 4 3 3 1 2 2 1 4 9 3 5 3 3 2 4 5 2 6 2 3 4 4 3 3 3 4 4 4 4 3
16 16 18 18 19 21 20 18 19 24 28 26 25 26 22 20 18 18 22 23 24 22 21 20 19 18 17 16 16 16 15 15 16 16 16 15 14 14 13 13 12 12 12 13 13 12 12 12 10 13 12 12 11 10 9 9 9 8 7 7 7 7 6 5 6 5 3 2 1 3 2 1 1 4 8 2 3 2 3 1 3 5 1 5 5 2 4 4 4 4 3 3 3 3 4 4 3
20 18 15 15 16 17 19 21 17 24 24 25 25 21 23 24 21 18 21 19 22 21 19 17 17 17 16 16 16 16 15 15 14 16 17 14 13 13 12 12 12 12 11 12 14 14 13 12 11 12 12 11 11 10 9 9 8 8 8 7 7 7 6 6 5 5 5 4 4 3 2 1 2 3 3 1 2 3 3 2 0 2 4 3 1 4 4 5 4 4 4 5 4 1 4 4 4
18 19 17 16 17 18 19 20 18 22 20 24 25 24 20 21 21 23 14 15 18 19 19 17 17 17 16 15 16 16 17 15 15 16 17 15 14 13 11 12 12 13 11 13 14 15 14 12 12 12 11 12 10 10 10 9 9 9 6 6 6 6 7 7 5 5 6 4 3 3 3 1 3 4 4 2 2 3 1 1 2 3 4 2 4 5 6 5 4 2 2 2 3 3 4 4 4
22 20 22 17 19 18 18 19 22 19 19 19 24 23 20 21 22 23 16 18 20 21 20 19 19 18 16 17 17 18 17 15 15 15 16 15 13 14 11 12 13 15 13 15 15 14 14 13 14 13 11 12 10 10 9 8 7 6 5 6 5 6 7 7 7 5 4 4 4 3 2 1 2 4 3 3 3 2 3 4 2 1 1 4 5 5 4 4 4 3 2 0 3 3 4 4 5
23 18 14 17 18 16 18 18 22 17 18 15 21 22 20 22 21 23 20 19 18 20 20 20 20 19 17 18 19 18 16 17 18 16 17 15 16 15 13 12 13 14 15 14 15 15 14 12 13 12 11 11 10 10 9 8 7 9 9 7 8 7 5 4 6 5 4 4 4 3 2 2 3 3 3 3 2 2 3 4 3 4 4 5 4 4 4 4 3 3 2 3 3 4 3 5 6
17 18 18 16 17 17 16 16 20 18 14 14 18 20 17 19 19 22 21 19 18 21 23 22 20 20 20 20 19 17 17 18 17 17 17 17 16 15 14 13 14 13 13 14 13 14 12 11 12 12 11 10 9 9 8 7 8 10 7 6 5 6 6 6 7 6 6 5 5 4 3 3 4 4 4 3 3 4 5 5 4 5 6 5 4 4 4 4 4 4 5 1 6 3 4 5 6
20 21 18 16 19 18 18 14 16 14 15 17 16 15 15 18 19 20 21 20 18 19 20 21 20 19 17 16 17 17 18 18 18 18 17 16 16 16 16 14 13 14 13 14 13 13 10 12 11 11 11 11 9 9 9 9 9 9 8 8 8 8 7 6 7 6 6 6 5 5 4 4 5 5 5 5 5 5 5 5 5 5 5 5 4 4 3 3 3 3 3 2 4 3 4 3 5
17 24 22 18 19 19 21 17 19 13 14 18 19 13 15 18 23 22 19 18 20 19 20 21 21 19 20 19 18 17 16 17 18 19 18 17 16 14 14 15 15 14 13 12 13 12 11 11 12 12 10 10 10 11 10 9 9 9 9 9 9 8 8 8 8 8 7 6 5 5 5 4 5 6 6 5 6 5 5 6 6 5 5 5 3 2 2 2 4 5 4 4 3 4 2 3 4
18 19 24 21 20 18 19 18 18 15 15 18 22 16 11 15 21 21 21 22 23 19 20 21 20 19 19 18 17 17 17 18 18 17 17 18 17 16 15 15 15 14 14 12 12 13 13 12 14 11 9 9 8 8 10 8 9 9 10 9 7 5 6 6 5 5 6 6 6 6 7 6 6 5 5 5 5 4 5 7 6 5 4 3 3 3 3 4 5 6 5 5 5 3 2 3 2
17 19 24 22 20 20 23 21 17 12 13 14 22 17 13 13 17 21 23 23 23 23 22 22 20 20 19 19 18 18 17 19 18 18 18 18 18 17 16 13 13 14 12 13 13 11 10 9 11 10 7 7 5 5 9 9 10 9 10 9 6 6 5 6 6 5 6 7 7 7 6 7 6 5 5 5 5 6 7 8 6 4 3 3 3 4 4 5 5 6 6 6 6 6 6 4 4
15 20 23 23 20 15 18 20 17 14 13 14 17 23 15 12 14 21 23 24 25 25 24 23 22 22 20 19 19 19 18 18 20 19 19 19 18 17 15 13 13 13 11 12 11 9 9 6 8 9 8 8 9 10 10 10 9 10 8 7 7 2 4 6 5 6 7 7 9 7 6 7 7 6 5 5 5 7 8 7 6 4 3 4 4 5 6 7 8 7 7 6 6 6 6 5 5
20 18 21 21 21 19 19 17 18 16 15 14 17 20 14 15 11 17 22 24 25 24 24 24 24 23 22 19 19 21 19 18 19 19 19 18 17 16 15 14 13 12 12 12 11 6 6 9 10 10 9 9 9 11 10 11 9 9 9 9 9 10 9 8 8 8 8 8 9 9 8 7 6 5 5 5 7 8 7 6 6 6 6 6 5 6 8 8 7 7 7 7 7 7 6 6 7
17 21 19 19 20 17 14 14 17 14 14 17 18 23 19 13 16 15 19 22 22 19 18 20 22 22 22 20 20 19 19 18 17 17 18 17 16 16 16 15 15 13 13 16 13 8 11 13 14 14 14 11 11 11 12 12 8 8 9 11 12 11 11 10 9 9 8 9 9 8 7 6 4 5 5 6 7 6 6 6 5 5 5 5 5 6 6 6 6 6 7 8 8 8 7 8 8
22 17 17 16 16 17 14 12 14 13 15 18 20 21 25 16 14 17 17 19 22 21 24 24 24 23 21 20 19 20 20 18 17 17 18 17 17 16 14 14 15 15 16 16 15 12 14 15 17 16 14 14 13 12 13 13 11 9 10 12 12 11 11 10 10 10 10 11 10 9 7 6 5 5 5 5 5 6 5 5 5 5 5 5 6 5 5 6 6 5 6 6 7 8 8 7 8
21 19 17 17 14 14 16 14 14 15 16 16 22 22 19 21 13 15 17 21 22 22 20 23 24 24 22 21 21 19 18 18 17 17 18 17 18 18 17 16 16 15 15 17 16 15 16 16 16 14 15 14 15 14 13 13 12 12 11 11 11 10 10 10 11 11 11 11 10 10 8 6 5 6 5 5 5 6 5 5 5 5 5 6 7 6 6 6 6 7 7 8 8 9 8 8 8
22 20 18 17 16 16 15 16 12 14 15 14 19 19 15 14 17 17 15 19 19 20 22 23 24 24 23 22 20 19 18 17 16 17 17 17 17 17 18 17 16 15 16 15 18 17 15 15 16 14 15 15 14 13 14 13 12 11 10 10 10 10 10 10 10 11 8 5 7 9 7 5 6 6 6 6 5 6 5 5 6 6 7 8 7 7 6 6 7 7 8 8 8 8 8 9 8
21 19 19 16 14 15 17 16 17 16 13 15 18 15 13 16 12 22 15 16 19 20 21 21 23 23 22 21 20 20 19 17 15 16 17 19 18 19 17 17 15 15 17 14 16 17 16 15 15 14 15 14 15 13 13 14 11 11 11 10 9 9 10 10 10 9 8 9 7 7 6 6 6 6 6 7 7 6 7 7 7 7 8 7 7 6 6 7 7 7 8 8 8 7 8 7 7
19 19 18 18 17 13 14 10 12 14 13 12 14 12 13 11 3 17 15 10 15 18 21 21 24 22 23 20 19 18 17 17 17 17 17 19 19 18 16 15 15 13 15 14 17 17 15 14 14 14 14 14 14 14 13 13 12 11 11 12 11 9 8 9 9 10 7 8 7 7 7 6 6 5 5 6 7 7 7 8 7 8 8 7 7 7 7 7 7 7 7 7 8 7 8 9 8
18 18 19 18 16 15 9 8 12 6 9 12 7 12 12 11 2 9 19 16 15 17 20 22 23 24 23 20 19 19 17 17 16 17 17 19 18 17 16 16 16 16 16 16 17 16 16 13 15 15 15 14 15 14 13 11 11 12 12 12 11 9 10 11 11 13 10 8 7 6 7 7 6 6 6 7 8 8 8 7 8 8 8 7 7 7 8 8 8 7 7 8 8 7 7 8 7
15 18 18 19 20 14 11 10 7 11 13 10 14 15 14 14 10 11 17 19 17 17 20 21 23 24 23 20 19 19 18 16 18 18 19 19 18 18 16 16 17 17 18 17 17 16 14 15 16 14 14 16 13 14 12 11 11 10 11 12 12 12 11 12 13 15 12 9 7 7 7 6 7 6 7 7 8 9 8 9 8 8 7 7 7 7 8 8 8 7 8 8 7 7 7 6 6
17 18 18 18 14 16 14 7 13 13 12 9 13 16 12 13 10 14 16 18 19 19 20 21 23 23 23 21 22 21 20 17 15 18 18 18 18 18 17 16 17 17 17 16 15 16 13 11 12 14 13 13 14 12 12 11 11 9 8 9 11 10 10 11 13 13 13 11 10 9 9 7 8 8 8 9 9 9 8 8 8 8 7 8 8 8 8 7 8 8 7 7 7 6 7 7 6
20 19 19 18 11 13 14 10 10 11 11 12 14 16 10 14 10 15 14 15 18 19 20 21 21 23 21 20 19 19 18 17 18 18 17 18 19 18 18 18 18 19 19 17 15 14 14 11 14 12 12 14 12 14 12 13 10 9 10 9 10 11 12 13 13 13 11 11 11 10 9 9 8 8 8 9 9 9 9 9 8 8 8 8 8 7 8 8 7 7 7 6 7 7 7 7 6
18 18 17 16 11 7 8 11 13 11 9 10 9 11 11 11 11 15 18 18 18 19 19 18 20 21 21 21 18 17 18 17 18 18 18 19 19 18 17 17 18 16 15 16 15 14 13 13 16 14 16 16 15 14 12 11 9 11 12 13 13 12 14 13 14 13 11 11 10 9 9 8 9 8 9 9 9 10 9 9 9 8 8 8 8 8 7 7 7 7 7 7 7 7 7 6 6
17 16 17 16 14 12 13 12 11 12 11 9 10 9 9 10 11 14 16 17 16 17 17 17 19 21 19 17 19 17 16 19 20 18 19 19 19 19 17 17 17 16 17 18 17 14 16 18 17 16 15 13 15 15 12 11 10 10 13 13 14 13 13 13 13 11 11 10 9 8 8 8 8 8 9 9 10 9 9 9 9 9 9 9 8 8 8 7 7 8 7 6 7 7 7 6 5
Wind_Direction
300 307 303 223 223 278 303 263 277 166 268 248 292 216 102 181 146 188 71 293 221 56 34 145 31 135 306 352 172 121 140 21 45 348 93 83 204 137 153 142 136 132 132 134 133 142 141 136 137 143 144 147 149 146 144 139 136 134 134 134 131 131 126 129 137 131 124 119 112 109 108 105 102 99 98 99 93 94 91 99 102 107 104 104 103 103 97 100 100 102 100 99 97 95 91 87 81
313 315 305 256 221 255 273 336 287 262 256 269 231 291 108 199 228 157 80 26 8 13 329 65 150 142 249 290 347 159 54 43 42 96 54 110 132 141 146 150 139 135 133 132 139 144 145 140 138 142 146 147 149 150 147 142 140 140 138 135 131 131 130 132 139 131 126 119 112 112 111 108 105 101 101 102 100 94 103 99 101 100 102 102 100 96 99 110 109 107 106 103 103 102 94 87 82
310 310 309 300 238 241 284 242 260 248 264 262 275 256 70 273 240 117 46 42 7 331 329 142 155 263 239 203 191 349 108 46 41 27 102 150 143 139 161 146 140 136 131 135 140 144 143 143 138 142 147 147 150 151 150 146 146 145 141 136 134 132 131 137 136 135 128 122 115 116 115 113 110 110 108 108 109 105 99 105 112 108 104 96 91 91 97 106 111 109 109 106 107 101 94 88 86
290 281 288 307 277 199 274 256 268 269 258 254 279 266 238 267 262 45 62 354 8 294 356 9 267 78 283 336 22 164 84 103 173 170 178 187 137 146 150 146 138 135 133 138 144 140 144 136 140 143 146 148 151 152 151 150 149 148 145 140 137 135 136 139 138 138 128 122 119 121 119 118 118 115 110 108 106 100 101 110 100 103 101 101 100 101 107 111 116 113 109 112 104 100 94 88 78
279 280 265 279 301 238 226 239 236 217 251 256 236 261 262 287 312 246 140 285 60 332 344 2 281 96 48 348 21 354 89 91 96 34 89 85 105 136 140 139 145 138 136 139 139 136 128 137 142 143 144 149 151 154 151 151 151 150 146 142 140 140 139 142 146 138 131 126 124 126 126 127 127 121 118 110 102 92 91 91 95 94 97 101 103 102 106 114 111 116 113 110 105 97 95 90 82
267 264 254 263 255 15 282 251 236 223 210 226 241 260 274 234 250 234 297 252 349 184 15 296 4 334 264 89 26 28 27 188 82 86 109 115 128 131 136 146 143 141 137 139 134 133 139 135 142 139 147 150 152 153 152 151 151 151 148 145 143 143 144 145 146 139 133 131 131 132 132 132 126 115 110 108 105 99 100 102 103 104 105 103 104 107 112 117 115 113 117 111 105 99 98 97 92
279 268 228 225 245 244 248 235 248 247 224 188 248 212 221 221 220 213 253 273 159 287 268 334 307 288 242 112 93 57 61 68 250 69 68 121 128 135 141 148 145 133 133 135 134 129 136 135 136 141 147 152 153 152 153 151 149 149 150 147 144 144 146 147 142 141 132 132 132 132 131 125 119 112 110 111 109 106 104 101 99 101 105 108 104 110 119 120 121 121 116 108 108 111 102 112 93
260 270 262 237 238 212 226 243 240 241 242 193 201 248 207 211 96 211 227 228 193 260 89 316 289 309 317 172 209 95 79 60 86 95 106 125 133 143 151 143 137 132 132 128 132 119 127 132 136 140 146 150 153 152 150 149 149 149 148 149 148 147 149 149 143 140 134 132 131 132 137 129 120 122 115 113 113 110 109 108 107 104 105 106 108 113 119 120 115 108 104 116 112 130 138 116 96
244 243 250 277 256 252 235 225 237 234 262 244 202 209 324 280 148 288 260 180 276 228 258 244 358 273 49 309 88 112 76 86 88 107 117 127 138 147 149 143 136 138 132 125 103 123 134 132 134 140 146 148 152 151 150 146 146 148 147 148 148 147 149 149 143 139 137 132 135 137 130 122 122 123 119 116 116 112 107 110 112 111 113 113 116 115 114 116 118 125 123 125 145 140 145 127 81
247 225 234 233 252 248 250 242 231 231 229 245 244 211 217 218 240 230 263 268 260 71 231 30 286 278 334 258 129 123 95 103 117 120 126 129 135 140 138 138 142 136 136 128 129 126 128 134 132 136 143 147 151 148 148 141 143 145 147 146 147 144 146 143 136 139 136 130 131 130 126 123 124 122 120 120 119 116 110 108 111 114 118 122 122 127 129 135 131 136 140 143 145 146 145 124 83
241 217 242 252 231 241 242 245 242 226 239 234 235 184 186 235 241 232 237 264 290 262 315 208 241 224 315 304 77 97 103 125 135 123 127 126 129 132 138 141 142 136 134 124 128 126 130 141 136 135 141 146 138 138 137 138 139 141 139 140 137 144 142 148 141 138 132 129 129 128 127 127 122 122 117 116 115 115 112 109 110 117 121 123 127 131 137 138 141 143 144 143 140 143 137 168 65
242 238 207 233 245 247 237 241 247 244 228 221 236 225 185 225 232 236 235 240 236 184 249 143 5 355 277 278 110 113 109 121 122 130 128 132 137 136 136 140 137 134 126 127 127 130 138 141 146 144 141 139 132 132 135 134 140 140 142 140 141 141 140 138 133 129 122 121 122 123 120 119 123 119 117 120 120 115 112 114 116 123 125 127 132 136 136 140 142 143 149 155 157 152 165 178 215
242 237 237 236 237 237 250 253 238 243 241 234 232 204 213 215 232 227 236 233 263 294 260 134 1 255 268 314 110 120 141 128 130 132 131 146 141 139 147 139 132 130 129 140 132 134 141 151 146 154 144 125 127 129 134 137 138 139 143 137 135 137 138 134 129 128 123 119 120 110 103 99 103 107 112 116 123 121 119 120 121 120 126 129 134 138 138 141 146 151 154 163 167 175 181 194 213
233 234 245 249 239 245 241 240 248 246 234 241 245 211 203 212 227 235 231 243 250 237 193 71 266 17 263 171 133 153 139 144 132 137 137 143 140 146 144 126 130 134 143 146 136 138 145 154 148 150 145 154 146 137 128 136 136 138 139 134 132 138 136 124 124 123 118 115 111 114 118 119 114 126 128 125 127 134 126 128 128 125 127 129 132 137 139 140 143 151 159 164 172 186 198 210 237
237 231 245 251 251 240 233 241 235 237 243 232 237 232 173 201 245 230 237 252 246 275 87 240 309 272 54 311 147 106 142 148 140 136 145 145 143 144 133 137 142 143 150 147 138 143 150 152 149 146 158 160 148 158 159 145 141 139 136 136 135 140 130 126 126 120 117 114 113 117 125 123 123 118 129 150 157 150 145 135 138 137 136 135 135 133 137 138 142 150 160 168 180 185 203 229 238
230 236 238 242 240 243 238 235 234 247 237 231 232 232 183 189 223 237 220 239 251 139 325 248 160 275 358 302 35 129 134 142 144 141 159 140 138 146 139 143 151 144 148 150 144 148 153 153 152 154 158 161 161 161 161 158 148 143 142 138 136 137 132 128 128 123 120 118 120 124 136 135 142 142 147 154 161 173 155 183 133 139 155 148 141 140 137 145 148 149 161 174 188 194 211 222 228
223 237 238 236 241 235 236 240 235 229 238 245 230 237 211 188 186 227 239 211 245 254 172 243 268 109 267 39 64 125 133 132 147 149 159 145 156 149 145 150 150 143 151 155 149 162 149 156 141 158 164 157 162 159 156 160 149 149 148 145 143 142 139 137 131 128 127 123 141 162 166 175 144 143 174 162 155 180 186 133 153 145 161 161 153 151 152 158 164 163 172 203 203 215 216 218 219
225 222 231 236 234 236 236 235 239 253 248 229 239 243 219 205 218 224 221 223 235 253 231 186 219 232 18 138 156 132 134 145 151 159 162 147 167 156 155 151 155 147 158 158 161 160 156 151 147 160 163 159 160 160 159 160 160 167 158 154 153 149 148 143 149 149 145 142 162 174 199 138 175 139 133 143 184 153 157 152 157 165 172 175 180 177 177 187 193 199 208 212 219 222 221 217 207
220 219 227 238 233 240 241 240 242 246 245 240 241 235 212 210 229 221 221 220 233 230 232 225 208 211 133 140 131 144 144 148 157 168 166 159 171 156 158 151 158 153 157 169 157 156 158 149 152 164 162 160 160 161 166 160 167 169 163 163 156 162 159 164 160 160 156 152 186 166 152 167 156 141 159 178 145 159 143 170 170 179 187 198 199 200 196 204 211 214 217 221 223 224 222 224 215
217 226 228 235 235 239 236 236 242 243 254 245 233 251 211 213 221 236 216 234 229 227 231 214 219 219 166 148 148 148 153 156 160 170 171 160 173 159 160 158 157 152 152 159 154 176 159 153 156 156 160 161 163 167 173 161 170 167 165 165 164 165 168 174 165 175 153 166 149 153 160 131 116 96 96 120 136 161 150 179 183 188 196 203 211 209 208 217 218 220 221 224 229 226 223 224 230
206 228 231 235 231 236 236 239 240 243 243 248 247 240 241 198 205 229 238 212 231 246 208 244 215 215 171 157 156 158 155 158 164 169 173 171 173 168 175 167 179 155 152 163 162 176 162 156 159 157 161 166 170 167 177 165 171 169 167 167 162 166 170 167 175 174 144 147 146 187 146 183 151 150 162 172 185 160 165 176 182 192 188 193 201 212 191 181 201 199 204 214 216 224 224 236 320
224 226 233 238 238 238 234 236 242 244 239 247 249 241 238 238 246 217 238 241 224 222 241 212 234 238 158 161 158 158 160 159 166 174 177 177 184 167 174 153 146 142 160 173 164 154 157 157 167 156 171 166 174 174 173 168 171 170 167 162 157 171 162 180 166 155 151 154 183 171 138 187 180 164 171 184 175 162 172 176 185 184 184 184 185 218 195 183 193 212 204 198 213 222 221 252 287
231 231 234 236 236 243 238 235 234 238 241 238 240 231 241 233 239 241 221 247 235 242 260 305 225 223 140 159 155 159 161 163 168 172 178 175 189 160 173 160 163 161 174 169 145 161 168 168 167 170 177 165 178 181 172 170 178 169 164 161 160 161 170 174 169 162 154 161 182 160 174 178 195 164 172 184 179 182 181 188 188 177 191 184 190 213 170 207 228 185 221 238 261 272 296 334 213
229 234 231 234 236 240 241 247 241 233 236 237 239 233 227 235 244 243 241 232 244 242 246 226 176 46 66 150 161 161 162 165 170 173 174 180 191 161 173 166 165 170 174 149 157 159 170 173 169 172 173 175 179 178 173 168 176 165 165 151 174 157 166 179 166 157 155 166 173 178 173 185 191 184 167 190 184 194 182 193 180 181 200 183 196 187 185 194 215 196 292 340 293 307 275 221 305
225 233 235 241 237 238 238 238 244 249 251 243 235 229 224 232 247 246 245 238 228 238 247 197 212 149 170 193 162 161 163 164 169 172 176 181 193 160 157 166 172 172 167 154 162 149 162 170 171 175 167 180 181 178 171 175 168 170 165 160 165 158 175 171 161 151 164 168 176 182 186 196 185 185 178 184 197 187 191 193 197 187 195 177 177 195 188 162 199 210 177 260 230 264 229 229 313
223 233 233 238 243 238 236 241 237 236 238 240 232 227 232 234 244 248 246 241 223 234 237 201 165 151 163 170 166 167 168 168 169 174 180 185 180 165 167 176 171 180 169 158 151 151 159 166 178 174 169 187 178 177 172 171 169 169 167 165 160 168 174 166 155 166 171 172 177 188 178 200 213 186 190 191 188 187 194 192 210 189 217 158 189 172 174 205 181 182 204 213 236 199 243 78 289
221 230 237 235 236 240 230 232 226 230 234 229 230 229 236 236 241 245 234 239 239 229 211 211 158 167 171 172 168 176 173 174 174 170 180 189 180 176 172 172 177 174 161 150 158 160 158 170 180 176 173 185 176 173 180 170 163 175 168 160 166 174 160 158 174 166 175 176 172 182 189 193 216 217 204 205 180 194 192 198 196 191 208 191 195 182 173 170 187 185 221 226 270 338 358 347 312
244 239 233 234 235 240 230 241 232 221 226 222 226 233 238 242 238 239 234 229 231 230 205 197 177 203 203 177 170 174 177 176 174 174 181 188 185 176 174 178 170 174 164 156 168 157 154 175 176 180 171 186 170 180 176 171 171 168 166 161 166 164 156 171 174 173 166 167 173 183 198 206 209 210 236 219 207 199 204 201 194 206 202 90 13 231 118 224 185 139 95 131 73 293 338 8 304
240 237 243 239 230 235 225 218 219 227 226 218 225 245 236 232 233 233 233 238 209 230 210 196 193 217 194 193 177 175 184 178 178 180 186 189 181 179 174 174 172 170 172 167 167 156 152 173 172 181 176 176 177 180 173 168 174 163 163 167 162 152 171 178 172 162 163 168 176 197 202 211 218 206 210 234 227 212 222 191 217 188 43 315 226 355 96 193 143 161 154 192 215 90 328 15 323
244 241 239 236 229 228 222 208 218 221 224 211 211 233 229 229 233 235 233 215 230 213 205 199 191 210 210 197 191 182 180 181 185 183 183 188 178 172 177 175 172 177 167 175 158 150 151 171 176 176 175 173 185 176 175 168 168 164 165 165 156 165 174 178 159 159 170 173 170 186 208 210 220 222 214 214 242 244 185 236 19 18 9 330 298 337 323 206 148 98 160 196 62 304 197 31 317
230 231 235 235 226 224 213 205 208 221 209 215 209 233 234 230 231 228 228 200 228 210 203 209 189 199 202 201 196 189 181 184 184 188 177 184 180 174 173 177 176 182 160 169 162 149 160 173 171 173 175 176 186 171 170 163 166 167 165 165 159 176 174 167 155 165 165 183 172 179 198 208 229 228 234 240 246 305 302 53 54 4 312 297 286 305 239 122 124 115 45 11 41 273 327 55 333
225 217 220 218 232 224 208 200 208 215 205 212 212 231 237 234 231 218 219 204 216 200 205 210 201 202 202 198 195 193 178 180 183 186 178 176 182 173 176 176 181 180 162 157 154 163 163 172 179 167 174 177 180 167 168 158 164 168 168 162 163 176 163 154 163 164 175 171 195 169 197 227 237 248 252 260 14 341 23 39 6 4 22 304 278 252 247 128 83 54 55 27 3 359 311 63 23
212 224 220 218 220 229 220 200 206 210 213 204 213 228 231 232 236 222 207 200 207 201 207 210 210 199 200 203 194 191 174 177 183 184 179 179 178 172 168 170 183 179 164 161 163 164 169 170 176 174 173 177 171 168 163 159 164 165 171 167 166 167 145 157 150 159 173 160 206 222 164 246 294 278 342 317 39 5 54 131 357 321 290 273 313 250 190 64 92 84 71 40 19 342 356 9 51
212 207 229 221 219 214 227 205 196 202 209 208 208 226 231 236 225 228 208 195 199 200 204 214 215 206 201 204 198 194 180 176 179 176 173 177 173 173 169 173 178 168 157 157 161 162 172 167 176 164 180 172 169 166 160 165 169 168 169 164 160 151 149 149 147 169 161 35 21 353 154 177 254 15 7 48 24 33 11 20 43 297 270 266 255 346 27 69 66 38 43 44 30 13 19 9 10
209 204 215 223 225 221 219 222 181 199 201 218 209 221 229 235 238 219 227 200 193 195 203 217 214 209 203 202 199 196 187 181 175 170 168 173 166 169 171 169 167 155 158 153 156 167 169 165 176 167 175 170 170 168 166 172 168 171 162 157 148 147 151 148 165 165 89 109 84 240 206 306 294 40 49 28 46 68 13 65 237 268 196 246 266 139 80 68 53 43 23 40 47 48 21 18 0
224 218 221 225 225 216 222 218 205 190 200 214 216 215 219 225 232 234 225 187 178 193 208 214 209 208 204 199 197 196 184 185 174 161 165 170 166 167 165 164 165 160 160 156 164 168 170 167 167 171 173 169 170 174 172 173 171 169 163 152 153 157 153 156 166 125 147 163 182 192 131 228 54 77 111 46 76 101 135 208 91 283 233 209 25 58 39 49 40 53 46 2 12 37 69 3 7
236 237 234 223 224 232 219 215 213 181 206 210 217 220 215 219 224 238 167 169 190 202 209 208 203 203 203 196 198 192 181 187 175 159 167 162 163 164 162 164 162 163 163 164 168 171 169 170 165 167 176 167 177 177 177 175 177 163 143 152 163 170 159 152 147 161 163 167 147 127 101 8 99 98 94 135 125 121 154 78 101 234 286 62 45 48 45 42 39 35 41 65 12 347 50 8 10
244 234 223 221 218 226 217 207 215 184 203 210 215 219 214 219 217 224 188 192 197 206 209 208 204 200 201 194 199 194 184 168 155 158 167 161 161 161 159 163 162 165 169 169 171 171 170 168 163 168 177 170 180 179 175 179 173 135 147 172 183 182 168 164 155 161 170 129 130 113 109 148 91 102 107 118 111 127 157 193 162 188 52 53 49 46 44 36 31 27 339 201 91 26 47 21 12
238 236 239 244 220 220 227 208 211 191 197 218 207 216 216 217 213 219 204 201 206 207 212 210 204 199 195 196 196 191 178 164 162 165 164 164 163 164 169 168 169 169 168 173 171 171 169 170 171 168 168 175 183 177 180 177 161 125 166 183 180 173 141 145 138 144 150 132 107 115 147 141 118 98 93 85 102 105 80 78 87 49 37 38 43 36 37 36 6 359 355 324 136 99 88 53 20
231 220 224 225 221 198 214 203 206 192 195 209 206 209 218 217 212 218 208 205 206 208 211 211 203 199 195 194 195 186 174 155 166 163 165 163 164 166 171 172 167 166 169 171 172 170 169 170 172 169 167 174 177 181 184 164 154 146 178 178 159 148 140 124 125 136 106 116 136 144 143 119 114 109 108 97 87 80 79 74 74 49 40 31 33 27 26 26 16 3 340 46 303 148 75 54 36
226 225 218 234 221 207 223 184 202 184 196 221 214 207 215 213 207 210 211 202 205 207 211 213 205 200 196 193 193 187 173 169 171 173 170 169 168 172 174 174 164 166 170 170 168 172 169 170 170 166 170 175 176 170 173 165 157 160 131 118 120 126 133 135 146 159 157 155 147 151 131 133 132 122 111 109 93 78 72 69 63 54 40 28 23 32 31 18 32 41 35 36 333 28 103 79 52
217 226 222 228 229 216 208 197 191 188 198 206 219 208 212 205 212 207 207 203 204 203 207 208 203 199 193 194 192 182 172 173 174 176 171 167 168 167 169 174 171 169 173 170 167 169 167 163 181 173 176 176 172 168 168 166 168 152 151 148 155 157 155 167 177 173 159 168 145 116 128 128 126 116 112 100 94 97 90 67 49 47 45 32 36 32 51 66 32 56 34 43 66 23 71 109 94
216 209 219 226 229 216 210 213 188 205 206 191 213 223 206 204 209 207 203 207 202 199 206 205 202 199 190 187 187 181 179 176 177 174 171 164 168 173 175 170 170 168 176 166 169 167 164 167 172 172 171 172 158 165 172 170 165 163 160 172 157 145 176 173 162 157 157 130 135 143 127 109 98 94 80 92 92 90 73 65 59 45 67 62 46 62 57 46 57 41 38 46 39 30 359 97 77
220 208 206 231 231 216 209 219 205 213 210 206 201 218 232 197 206 204 202 207 202 201 201 203 201 196 187 185 183 179 182 184 181 180 174 172 169 174 170 162 170 175 169 168 168 157 148 155 179 169 155 110 99 227 178 175 163 164 168 157 145 175 197 163 157 135 108 138 138 135 131 115 110 93 73 74 78 70 65 65 62 47 49 68 84 65 53 58 63 58 50 47 49 39 33 52 62
224 209 204 215 226 240 233 214 217 212 203 213 194 206 227 235 198 199 197 207 202 201 200 199 198 195 189 186 183 178 183 188 180 179 176 173 170 170 168 167 169 174 164 156 137 102 129 183 179 164 149 136 170 196 171 173 169 169 162 163 166 169 201 139 124 139 144 141 128 124 118 117 117 98 84 81 81 71 68 70 71 80 78 85 88 81 73 67 59 58 55 55 56 55 48 45 58
219 217 205 210 220 239 238 207 219 206 218 214 197 192 214 218 218 186 196 206 203 199 197 196 197 193 189 184 187 187 189 191 187 179 167 168 166 167 165 165 166 169 156 119 100 118 152 171 170 171 173 165 178 176 170 161 151 169 166 164 152 154 157 151 159 156 145 141 135 132 127 126 114 94 92 83 71 71 74 80 85 83 73 65 70 79 78 73 67 63 61 65 69 72 59 55 58
213 224 212 207 213 225 232 214 211 208 222 219 203 191 207 218 214 204 191 202 198 191 193 195 194 192 188 184 188 188 187 185 186 177 168 165 160 163 161 165 162 156 149 131 140 171 165 184 178 177 172 166 175 167 175 158 176 178 165 161 160 158 159 157 154 147 147 144 136 125 115 112 104 105 94 76 75 81 88 90 98 90 87 92 86 83 79 81 85 82 78 73 70 71 71 71 68
211 213 212 195 202 212 219 229 214 213 214 213 213 197 198 227 205 218 196 196 198 194 193 189 190 188 186 185 189 191 187 186 179 174 160 163 161 162 160 161 158 159 155 144 153 166 173 182 186 178 162 162 168 173 176 168 172 176 173 162 159 163 164 161 155 152 155 151 141 138 132 124 116 101 91 94 91 91 99 106 108 108 101 97 89 86 87 88 92 95 86 79 74 69 68 67 64
206 212 205 196 189 195 205 208 211 213 216 200 212 203 197 217 226 213 196 187 196 199 193 191 189 186 185 184 188 190 188 183 179 170 163 163 159 157 161 168 159 161 156 155 157 169 177 183 180 173 168 171 176 174 173 174 170 172 169 170 167 164 168 161 158 156 159 158 153 147 140 134 123 109 116 116 116 125 130 134 126 113 104 92 91 87 84 87 89 89 83 77 72 72 67 66 65
200 211 195 195 190 184 197 202 209 215 221 214 203 203 221 212 220 238 202 181 190 197 201 193 188 185 184 184 187 190 186 182 175 175 170 163 162 160 164 168 163 164 161 160 165 172 177 174 173 173 167 174 173 174 172 173 166 165 170 171 164 161 166 162 158 160 142 112 139 144 137 133 124 126 145 131 141 153 146 127 117 100 98 95 89 85 89 96 94 91 89 85 83 80 78 74 71
199 212 197 200 196 187 186 195 199 205 200 203 196 196 217 208 198 215 230 179 188 196 198 190 187 186 183 186 186 186 182 176 171 172 174 164 160 163 165 165 165 165 162 157 163 173 176 174 171 177 169 173 174 175 177 175 169 172 172 166 159 168 162 157 158 143 134 137 134 128 133 129 127 141 148 136 146 138 130 128 119 108 99 97 96 102 102 99 96 93 90 88 84 78 77 79 76
202 201 198 206 200 184 203 194 205 195 198 195 193 213 202 217 153 195 221 166 188 195 193 186 182 182 186 184 182 183 176 174 175 172 173 170 163 164 165 163 163 163 165 155 169 175 180 176 174 173 166 174 174 180 183 174 173 177 174 167 161 167 150 149 137 144 127 129 137 136 129 124 126 144 140 138 132 140 137 132 117 109 107 106 112 114 112 101 99 97 94 95 91 89 91 90 86
188 204 201 202 205 197 201 203 223 187 213 202 191 203 206 195 186 224 199 172 187 195 191 185 182 185 183 182 178 177 173 175 175 173 174 169 168 163 166 165 165 166 166 161 171 175 174 165 164 163 165 174 179 180 179 175 176 177 172 164 156 156 158 145 146 146 132 127 143 123 114 116 125 135 134 133 137 138 135 126 119 115 118 120 118 114 109 108 104 102 100 96 95 92 86 79 77
186 201 195 213 222 211 203 195 192 207 200 205 189 204 192 194 194 197 204 179 187 194 191 186 183 182 180 182 179 177 171 176 180 177 169 168 167 167 162 167 168 167 166 159 165 169 168 167 163 155 175 176 178 177 177 174 173 165 162 159 155 161 161 151 154 153 145 135 123 115 109 126 132 133 138 139 137 139 135 134 127 126 123 123 120 117 113 111 110 106 104 99 100 102 94 89 84
202 197 189 208 193 201 199 208 190 194 196 204 195 207 210 195 195 183 198 179 183 188 189 188 182 181 182 178 174 169 172 168 179 179 169 166 165 166 166 169 168 167 162 154 156 162 163 157 151 167 171 167 167 171 173 170 161 156 153 148 153 157 149 152 152 150 152 142 138 130 132 139 136 136 140 141 145 142 139 134 130 127 126 122 118 117 119 115 113 110 110 110 108 104 100 97 99
211 205 206 218 213 213 191 202 185 201 194 203 186 201 212 201 191 174 189 186 188 187 187 188 183 182 180 173 166 168 171 166 189 182 167 165 167 168 167 168 168 163 161 158 152 158 160 157 160 161 166 170 167 175 165 161 157 152 143 144 153 155 155 155 155 153 147 141 135 134 138 141 145 147 146 150 144 141 138 136 134 130 129 126 127 126 123 122 118 117 118 115 109 112 112 110 109
202 208 207 196 226 220 231 201 212 194 199 195 190 196 209 206 191 174 195 193 192 188 186 184 185 184 177 165 162 171 169 174 181 178 167 164 163 166 168 166 161 159 156 156 154 156 152 154 164 162 170 173 170 170 162 157 148 148 142 161 159 157 153 154 155 149 134 129 127 133 145 152 151 149 147 149 145 142 141 139 137 138 133 133 132 132 128 124 122 120 115 118 126 120 118 115 115
196 198 201 195 196 191 197 199 209 208 202 188 205 203 205 211 209 176 195 188 195 184 184 183 184 174 171 160 165 165 169 178 185 183 166 162 165 165 164 162 160 157 159 161 156 145 154 163 163 166 174 175 165 168 160 150 139 147 160 161 160 154 153 154 149 134 129 123 125 139 145 150 146 146 153 147 146 141 140 143 141 138 138 137 137 132 132 126 123 122 122 123 123 124 119 127 129